DECAYED

FREGAT DEB, 45947 (Decayed)

Orbit data source: Space-Track

FREGAT DEB, 45947 was space debris in LEO originally from a launch on Mon, 18 Jul 2011 UTC launched from the Tyuratam Missile And Space Complex (TTMTR). Debris objects in space refer to the collection of defunct objects orbiting the Earth. Examples of debris include non-operational satellites, rocket bodies, and fragments generated from explosions, collisions, or faulty payload assembly.

Not visible in the next 10 days
Identifier
45947, 2011-037FC
Orbit
Decayed
Country
Flag of CISCIS
Related business
Manufacturer
Lavochkin
Mission
Decayed spacecraft
Bus & Motor
Unknown
Mass
Unknown
Launch date (UTC)
2011-07-18 (15 years ago)
Launch vehicle
Unknown
Launch site
Tyuratam Missile And Space Complex (TTMTR)
Object type
Payload
Rocket body
Debris
Shape & HBR
Unknown shape, 0.1 m
Radar Cross Section
Medium (>0.1 m² and <1 m²)

Expand to show TLE details & history
Last TLE update: 1 year ago

TLE from 1 year ago
0 FREGAT DEB
1 45947U 11037FC  25136.74181102  .03215629  00000-0  16440+0 0  9994
2 45947  50.8951 252.8791 0066735 326.6454  33.0312 15.10297155218751
Epoch: 2025-05-16T17:48Z
TLE epoch observation values (Epoch: 2025-05-16T17:48:12.472Z)
Latitude
0.00002°
Longitude
111.13402°
Altitude
497.355 km
Speed
7.638 km/s
True Right ascension
16h 51m 30s
True Declination
0° 00' 00"
Sunlit
Object was in full shadow at epoch
Visualization orbit readout
Latitude
Unknown
Longitude
Unknown
Altitude
Unknown
Speed
Unknown
Apparent Right ascension
Unknown
Apparent Declination
Unknown
Sunlit
N/A
Visualization observer readout
Local Sidereal Time
11:08:52
Azimuth
Unknown
Elevation
Unknown
Doppler factor
Unknown
Orbital elements
Apogee altitude
582.055 km
Perigee altitude
489.773 km
Semi-major axis
6,914.051 km
Eccentricity
0.00667
Inclination
50.8951°
RAAN
252.8791°
Arg. of periapsis
326.6454°
True anomaly
33.45098°
Mean anomaly
33.0312°
Eccentric anomaly
33.2408°
Mean motion
3.77524 °/min
Orbital period
95.36 mins
BSTAR
0.1644
Loading maneuver chart data...
Computing Atmospheric mass density...
Loading historical data...
Loading historical data...
Loading historical data...
Loading historical data...
Loading historical data...
Loading historical data...
Loading historical data...

Documentation

Showing up to 5 results
|